Orbital Elements at Epoch 2459000.5 (2020-May-31.0) TDB
Reference: JPL 26 (heliocentric ecliptic J2000)
Element | Value | Uncertainty (1-sigma) | Units |
e | .2449264229989611 | 2.9593e-08 | |
a | 2.241028464459913 | 5.0197e-09 | au |
q | 1.692141378820892 | 6.4835e-08 | au |
i | 6.429416818247796 | 3.3313e-06 | deg |
node | 182.2807537809795 | 2.5223e-05 | deg |
peri | 99.67955559242323 | 2.6599e-05 | deg |
M | .873805944898574 | 6.4031e-06 | deg |
tp | 2458997.525719112693 (2020-May-28.02571911) | 2.1795e-05 | TDB |
period | 1225.376327183058 3.35 | 4.1171e-06 1.127e-08 | d yr |
n | .2937872978398251 | 9.871e-10 | deg/d |
Q | 2.789915550098935 | 6.2492e-09 | au |
|
| | Orbit Determination Parameters
Additional Information
|